STARLINK-2709

decayed
NORAD ID: 48664 Int'l Des: 2021-044 Owner: SPXS Country: US Constellation: starlink
LEOCIRCULAR

关于 STARLINK-2709

正在加载描述...

高度历史

Altitude vs Time

uPlot chart will show altitude changes over time

两行轨道根数

1 48664U 21044AC 25086.47700755 .17109421 12558-4 45711-3 0 9996
2 48664 53.0312 210.3871 0008633 292.3392 112.9648 16.45047046212694
Epoch: Mar 27, 2025 • Age: 4144 hours

当前状态

Position data unavailable
发射日期 May 26, 2021
运行时间 4.3 years
衰减日期 Mar 27, 2025
类型 internet

技术详情

分类 Payload
质量 260.00 kg
干质量 248.00 kg
总质量 260.00 kg
长度 0.20 m
直径 2.80 m
跨度 9.00 m
形状 Box + pan
制造商 SPXS
平台类型 Starlink
阶段状态 Reentered
所有者/国家 SPXS/US

大型星座

Loading constellations...